Vancouver, WA

7:28 PM PST on February 21, 2017 (GMT -0800)
Pearson

Weather History for KVUO - April, 2013

Change the Weather History Date:

Tuesday, April 30, 2013

  Actual Average Record
Temperature  
Mean Temperature 49 °F 54 °F  
Max Temperature 58 °F 65 °F 90 °F (1998)
Min Temperature 39 °F 44 °F 29 °F (1972)
Degree Days  
Heating Degree Days 16    
Month to date heating degree days 393  
Since 1 July heating degree days 3956  
Cooling Degree Days 0    
Month to date cooling degree days 0  
Year to date cooling degree days 0  
Moisture  
Dew Point 34 °F    
Average Humidity 57    
Maximum Humidity 79    
Minimum Humidity 35    
Precipitation  
Precipitation 0.02 in 0.08 in 1.34 in (2003)
Month to date precipitation 2.20 3.01  
Year to date precipitation 8.34 16.11  
Snow  
Snow 0.00 in - - ()
Month to date snowfall 0.0  
Snow Depth 0.00 in    
Sea Level Pressure  
Sea Level Pressure 30.34 in    
Wind  
Wind Speed 4 mph (WNW)    
Max Wind Speed 14 mph    
Max Gust Speed 22 mph    
Visibility 10 miles    
Events Rain    
T = Trace of Precipitation, MM = Missing Value Source: NWS Daily Summary

Daily Weather History Graph

Daily Weather History Graph

Search for Another Location

Airport or City:

Trip Planner

Search our weather history database for the weather conditions in past years. The results will help you decide how hot, cold, wet, or windy it might be!

Date:

Astronomy

Apr. 30, 2013 Rise Set
Actual Time 5:59 AM PDT 8:16 PM PDT
Civil Twilight 5:26 AM PDT 8:49 PM PDT
Nautical Twilight 4:46 AM PDT 9:30 PM PDT
Astronomical Twilight 4:00 AM PDT 10:16 PM PDT
Moon 12:47 AM PDT (4/30) 10:31 AM PDT (4/30)
Length of Visible Light 15h 23m
Length of Day
14h 17m
Waning Gibbous, 69% of the Moon is Illuminated
Apr 30
Waning Gibbous
May 2
Last Quarter
May 9
New
May 17
First Quarter
May 24
Full

Hourly Weather History & Observations

Time (PDT) Temp. Windchill Dew Point Humidity Pressure Visibility Wind Dir Wind Speed Gust Speed Precip Events Conditions
12:53 AM 43.0 °F 40.3 °F 34.0 °F 71% 30.25 in 10.0 mi WNW 4.6 mph - N/A   Scattered Clouds
1:53 AM 39.9 °F - 33.1 °F 77% 30.26 in 10.0 mi Calm Calm - N/A   Scattered Clouds
2:53 AM 41.0 °F - 35.1 °F 79% 30.27 in 10.0 mi Calm Calm - N/A   Overcast
3:53 AM 42.1 °F - 35.1 °F 76% 30.27 in 10.0 mi Calm Calm - N/A   Overcast
4:53 AM 42.1 °F - 36.0 °F 79% 30.28 in 10.0 mi Calm Calm - N/A   Overcast
5:53 AM 43.0 °F 39.5 °F 35.1 °F 74% 30.28 in 10.0 mi West 5.8 mph - N/A   Overcast
6:53 AM 44.1 °F 41.5 °F 36.0 °F 73% 30.30 in 10.0 mi West 4.6 mph - N/A   Overcast
7:53 AM 45.0 °F 41.8 °F 34.0 °F 65% 30.31 in 10.0 mi NW 5.8 mph - N/A   Overcast
8:53 AM 46.0 °F 43.1 °F 34.0 °F 63% 30.32 in 10.0 mi WNW 5.8 mph - N/A   Overcast
9:53 AM 48.0 °F - 34.0 °F 58% 30.32 in 10.0 mi Variable 3.5 mph - N/A   Partly Cloudy
10:53 AM 50.0 °F - 33.1 °F 52% 30.33 in 10.0 mi NNW 5.8 mph - N/A   Mostly Cloudy
11:53 AM 48.9 °F - 35.1 °F 59% 30.35 in 10.0 mi Variable 3.5 mph - N/A   Mostly Cloudy
12:53 PM 48.9 °F - 37.9 °F 66% 30.35 in 10.0 mi South 4.6 mph - 0.01 in   Mostly Cloudy
1:53 PM 48.9 °F - 39.9 °F 71% 30.36 in 10.0 mi Calm Calm - 0.01 in Rain Light Rain
2:53 PM 53.1 °F - 37.0 °F 55% 30.36 in 10.0 mi West 6.9 mph - 0.00 in Rain Light Rain
3:53 PM 55.0 °F - 36.0 °F 49% 30.36 in 10.0 mi Variable 5.8 mph - N/A   Scattered Clouds
4:53 PM 55.9 °F - 32.0 °F 40% 30.35 in 10.0 mi WNW 5.8 mph - N/A   Clear
6:53 PM 55.0 °F - 30.0 °F 38% 30.37 in 10.0 mi WNW 4.6 mph - N/A   Clear
7:53 PM 54.0 °F - 28.9 °F 38% 30.38 in 10.0 mi NW 5.8 mph - N/A   Clear
8:53 PM 51.1 °F - 30.9 °F 46% 30.41 in 10.0 mi NNW 8.1 mph - N/A   Clear
9:53 PM 48.9 °F - 32.0 °F 52% 30.43 in 10.0 mi NNW 4.6 mph - N/A   Clear
10:53 PM 46.9 °F - 32.0 °F 56% 30.45 in 10.0 mi NNW 3.5 mph - N/A   Clear
11:53 PM 45.0 °F 40.6 °F 30.9 °F 58% 30.45 in 10.0 mi NNW 8.1 mph - N/A   Clear